Wind_Speed
15 14 12 10 9 10 10 14 15 14 16 18 22 22 22 20 19 18 17 17 15 15 14 13 13 12 13 15 17 18 19 19 18 17 16 16 15 13 13 11 6 4 5
15 14 9 9 10 11 12 12 13 15 17 18 21 22 21 19 18 16 16 16 15 14 13 14 12 13 16 17 19 21 22 23 23 21 19 18 18 18 17 13 10 8 7
13 12 9 10 10 10 12 14 15 15 17 19 21 21 19 18 17 16 15 15 15 15 15 13 14 15 16 19 22 25 26 26 25 23 21 20 19 18 17 15 13 9 8
12 11 9 12 12 12 13 16 15 17 18 21 21 20 18 17 16 15 14 14 14 15 16 16 16 17 19 20 21 23 24 26 26 26 23 18 19 18 16 14 13 8 5
11 12 9 12 13 12 12 15 16 17 19 21 20 18 17 15 14 14 14 14 14 15 17 17 16 17 19 21 23 23 25 26 28 27 26 23 25 24 17 14 10 8 5
11 12 13 13 12 11 12 14 15 17 18 19 18 16 15 13 13 14 15 14 14 15 14 14 14 16 20 22 23 24 26 27 29 29 29 28 29 30 24 16 9 6 7
12 13 14 14 12 13 13 13 14 15 17 17 16 15 13 11 11 13 13 13 12 12 12 12 12 15 20 21 22 24 26 27 28 29 31 30 30 31 29 21 12 3 3
15 14 15 14 11 15 13 14 13 14 16 16 16 13 12 10 10 11 11 10 9 9 8 9 10 15 18 20 21 23 25 26 27 29 30 30 30 31 31 25 17 8 1
15 15 14 13 11 17 13 14 13 15 17 16 16 13 11 8 9 9 9 9 7 6 6 7 9 13 16 18 20 22 24 25 27 28 29 30 29 30 30 27 19 14 10
15 15 14 14 11 14 14 15 13 14 16 17 16 13 12 10 10 11 8 7 6 5 4 6 11 12 15 17 19 21 23 26 27 27 28 28 28 28 29 27 23 18 16
15 14 15 15 12 13 13 13 14 15 16 16 15 14 13 12 12 12 10 7 6 3 3 6 9 12 14 16 17 20 22 24 25 27 27 26 26 25 27 27 25 23 19
16 17 17 16 14 13 13 17 16 16 16 16 15 14 14 13 10 9 8 5 3 2 1 3 7 11 13 16 18 20 21 22 24 25 26 25 24 23 24 25 26 23 21
11 14 14 13 13 13 15 17 19 20 18 16 15 15 14 13 12 9 7 6 5 5 3 3 6 10 12 14 17 18 19 19 21 24 24 24 23 22 20 21 23 23 21
10 13 13 11 11 11 14 18 17 20 20 19 17 16 14 14 12 10 11 10 8 8 7 8 11 15 15 14 15 18 19 19 19 22 23 22 22 21 19 17 17 20 21
10 11 11 11 10 9 9 14 17 18 22 20 19 18 16 16 15 14 11 13 12 13 13 15 17 17 18 16 16 17 19 19 19 19 21 20 20 20 18 17 14 14 17
11 11 11 11 10 10 10 11 15 17 19 19 19 19 19 18 19 18 18 16 19 18 20 19 20 20 21 21 18 18 19 19 19 19 19 19 19 18 18 16 14 11 11
13 10 9 9 9 9 8 8 10 14 18 19 21 20 20 22 22 20 20 21 20 20 21 22 21 22 23 21 21 20 20 18 19 18 18 18 17 18 17 15 13 12 9
13 10 12 12 12 11 10 8 8 9 14 17 21 21 20 19 19 21 21 21 23 24 24 22 20 19 22 23 23 22 22 19 17 17 17 17 17 16 16 15 12 11 11
16 17 13 12 13 13 13 11 10 10 12 13 13 16 19 19 19 19 19 19 21 21 21 21 21 21 21 22 22 23 21 19 18 17 17 17 17 16 15 14 11 11 10
20 19 20 19 16 16 14 12 12 12 13 13 14 14 14 15 16 17 17 17 18 18 19 20 20 19 19 20 21 20 18 18 17 17 16 17 17 16 14 13 12 11 11
20 20 20 19 18 19 17 15 15 15 15 15 16 16 17 17 17 17 17 18 20 20 20 19 18 17 18 19 21 20 20 18 16 17 16 17 17 17 14 12 12 11 11
21 21 21 20 20 21 20 18 17 17 18 18 18 18 18 19 20 20 21 21 22 22 21 20 20 20 19 19 21 21 21 20 17 19 16 15 19 20 17 14 14 14 14
21 22 22 21 21 21 20 20 20 20 20 20 19 19 20 20 21 22 22 22 22 22 21 21 21 21 21 22 23 22 23 23 22 20 22 17 20 20 20 18 17 16 17
25 24 24 27 27 27 23 21 20 21 21 20 21 21 21 22 23 24 24 24 24 24 24 26 25 23 22 23 24 25 25 25 24 22 26 24 20 22 23 21 20 19 19
30 29 33 29 27 34 29 27 26 27 26 25 25 24 24 24 24 25 27 27 27 26 29 30 29 29 28 27 28 28 28 30 28 24 24 30 25 26 25 23 24 24 23
23 21 20 29 34 33 29 28 29 31 32 31 29 29 29 29 29 29 29 30 30 30 31 32 32 33 33 32 31 31 32 33 33 33 25 31 30 31 31 25 24 27 28
Wind_Direction
146 138 134 133 118 109 111 107 116 117 119 120 116 115 111 107 104 102 98 93 90 85 81 74 66 62 57 52 48 42 36 29 22 17 14 10 3 352 347 345 348 317 291
151 144 143 137 118 121 120 113 121 127 128 125 121 118 116 111 105 101 98 94 89 83 75 67 61 57 56 53 48 41 34 30 24 19 14 13 6 353 347 339 333 319 296
156 155 145 143 129 118 128 125 131 132 131 128 125 121 118 113 108 103 100 97 93 85 77 71 65 58 54 51 43 36 30 28 24 20 18 14 1 357 348 341 336 325 309
165 161 150 145 144 133 133 127 135 134 133 133 132 129 125 118 115 112 106 99 92 86 77 64 57 51 49 47 41 34 28 24 24 21 21 18 11 8 354 346 338 335 319
163 160 157 152 159 146 137 135 138 139 141 140 140 135 129 126 123 115 103 96 91 84 78 70 55 52 51 46 44 36 29 21 21 20 19 20 19 21 14 2 355 1 338
164 166 172 169 163 158 153 146 150 148 145 146 145 140 133 129 124 115 107 98 91 85 78 73 63 57 54 47 42 35 30 24 19 15 17 21 17 16 20 20 356 8 39
158 166 173 176 169 166 158 153 156 153 153 154 151 148 135 130 123 115 110 100 95 89 78 71 66 59 54 47 40 36 30 24 19 15 15 21 21 16 21 22 31 24 27
169 174 172 181 181 172 160 163 165 166 158 157 160 155 147 143 131 126 123 114 104 101 89 74 63 57 50 42 36 34 31 24 19 17 16 19 24 22 23 27 32 41 65
177 179 183 186 175 171 170 171 164 168 165 164 168 165 164 160 148 145 133 134 125 119 101 73 54 50 47 35 29 29 27 24 19 18 17 19 24 26 27 30 35 48 55
181 182 184 172 177 182 181 178 170 171 170 169 171 175 175 171 155 147 148 143 145 136 112 72 42 31 37 29 20 22 21 20 16 18 18 17 23 26 30 33 40 49 54
187 182 180 191 192 190 193 183 178 177 178 175 176 181 182 182 172 159 163 167 166 139 86 78 48 23 21 20 16 15 17 18 11 15 17 18 20 25 30 35 41 47 50
196 192 191 198 208 204 195 199 191 186 189 187 185 186 189 193 192 197 188 191 186 204 347 42 37 13 7 7 9 6 9 12 8 7 12 16 19 20 29 34 40 45 50
190 195 201 202 209 205 193 189 199 202 204 208 202 196 200 207 200 213 223 242 259 289 298 320 345 347 352 353 357 357 358 1 4 2 5 9 15 16 23 32 39 43 47
187 196 202 209 209 210 204 199 197 206 214 216 223 216 215 224 230 230 242 251 252 275 294 294 295 310 328 335 345 345 345 348 357 357 358 3 8 12 14 26 33 43 45
186 191 189 200 207 213 211 214 217 214 216 222 225 230 230 233 241 246 254 247 262 276 284 287 295 299 310 320 328 333 335 334 345 351 350 356 3 6 6 13 22 35 44
191 188 185 198 204 214 224 232 233 227 219 226 224 233 240 245 245 251 254 259 263 271 281 285 287 293 301 308 315 322 324 325 335 341 343 348 355 0 2 2 10 14 33
197 196 206 209 220 226 226 227 234 238 237 233 231 237 244 247 255 259 258 260 261 269 277 288 287 287 291 296 302 310 312 315 324 329 334 341 351 354 354 355 358 2 357
209 224 229 224 232 229 227 229 240 247 246 240 241 241 246 254 259 261 264 267 269 274 278 278 282 286 288 291 296 300 301 306 311 316 325 335 344 346 348 347 347 349 348
222 223 216 218 220 224 219 217 224 235 242 247 247 246 249 257 265 266 267 268 272 277 277 278 282 283 284 286 288 290 294 302 305 309 316 324 332 336 341 346 343 339 338
231 229 222 221 224 217 215 221 227 229 236 240 244 243 247 253 256 262 266 269 274 277 280 281 280 284 289 287 286 286 289 295 298 303 306 312 318 323 329 339 341 338 333
233 237 239 232 230 224 225 224 228 231 233 235 239 244 247 251 256 259 263 267 269 270 271 274 275 276 281 286 289 291 294 295 293 292 301 304 308 313 318 319 323 324 323
235 239 236 237 237 239 239 241 241 242 245 242 243 247 249 251 255 257 259 260 265 269 273 273 275 276 277 278 280 286 291 294 295 298 301 298 301 305 311 313 309 310 311
239 245 245 245 243 242 242 241 240 242 247 252 252 254 255 255 256 259 260 263 269 274 278 278 278 279 278 279 282 285 289 293 297 300 298 297 296 299 303 305 308 307 305
240 244 256 256 252 249 243 242 245 247 246 249 255 257 256 258 260 261 264 266 269 271 274 275 277 278 278 279 282 284 287 288 289 294 293 292 291 292 295 298 301 302 301
261 259 252 258 258 245 247 248 249 250 250 250 252 256 257 258 260 263 266 268 269 272 273 276 278 279 279 279 281 282 285 286 285 283 286 288 290 288 286 288 291 292 294
245 260 265 253 251 253 248 253 260 254 255 254 255 256 258 260 260 261 264 267 269 271 272 276 278 280 282 283 283 284 284 284 285 286 285 286 288 289 288 284 280 283 286
Height
3237 3238 3239 3240 3241 3241 3242 3243 3245 3245 3246 3247 3248 3249 3250 3251 3251 3251 3251 3250 3250 3250 3249 3248 3247 3246 3244 3242 3240 3238 3235 3233 3229 3225 3222 3219 3216 3213 3211 3209 3207 3206 3203
3239 3240 3241 3242 3243 3244 3245 3246 3247 3248 3248 3250 3251 3252 3253 3254 3255 3255 3254 3254 3253 3253 3253 3252 3251 3249 3247 3244 3241 3239 3237 3234 3229 3226 3222 3219 3216 3213 3210 3207 3206 3204 3203
3241 3241 3243 3244 3245 3246 3247 3249 3250 3251 3252 3253 3255 3256 3257 3257 3258 3258 3258 3257 3257 3256 3256 3255 3253 3251 3249 3246 3244 3242 3239 3236 3232 3227 3224 3221 3216 3213 3208 3205 3203 3202 3201
3242 3243 3245 3246 3248 3249 3250 3251 3253 3254 3255 3257 3258 3259 3260 3261 3261 3261 3261 3260 3260 3259 3259 3259 3257 3255 3252 3249 3246 3245 3242 3236 3233 3229 3225 3221 3217 3213 3208 3204 3201 3199 3199
3242 3244 3247 3248 3250 3251 3252 3253 3255 3257 3258 3259 3261 3262 3263 3264 3264 3265 3264 3264 3263 3263 3263 3261 3260 3258 3255 3251 3248 3246 3242 3239 3233 3231 3226 3221 3217 3212 3208 3203 3200 3199 3197
3243 3246 3248 3250 3252 3253 3254 3255 3257 3258 3260 3262 3264 3265 3266 3267 3268 3268 3268 3267 3267 3266 3266 3264 3262 3260 3257 3253 3251 3247 3244 3240 3235 3231 3227 3222 3216 3211 3207 3202 3200 3199 3197
3244 3247 3249 3251 3252 3254 3255 3257 3259 3261 3262 3264 3266 3268 3269 3271 3272 3272 3272 3271 3270 3269 3269 3267 3265 3263 3258 3256 3253 3250 3246 3242 3238 3234 3229 3225 3219 3212 3207 3202 3200 3198 3198
3245 3247 3249 3252 3253 3255 3257 3259 3260 3262 3264 3266 3269 3270 3272 3274 3275 3274 3274 3273 3273 3272 3271 3270 3268 3264 3261 3258 3256 3253 3249 3245 3241 3237 3233 3227 3222 3216 3210 3205 3201 3199 3199
3245 3247 3249 3252 3254 3256 3258 3260 3261 3263 3265 3267 3270 3272 3274 3275 3276 3276 3275 3275 3275 3274 3273 3272 3270 3267 3264 3261 3258 3255 3252 3248 3244 3240 3235 3230 3225 3220 3215 3209 3205 3202 3201
3245 3247 3249 3252 3254 3257 3259 3261 3262 3264 3266 3268 3271 3273 3274 3276 3276 3277 3278 3276 3276 3275 3274 3273 3271 3269 3266 3263 3261 3258 3254 3251 3247 3242 3238 3233 3229 3224 3219 3214 3209 3206 3204
3246 3247 3250 3251 3254 3256 3259 3261 3263 3265 3267 3269 3271 3273 3275 3276 3277 3277 3278 3278 3278 3277 3276 3274 3272 3271 3268 3266 3263 3260 3257 3254 3249 3245 3241 3237 3232 3227 3224 3219 3214 3211 3208
3246 3247 3249 3251 3253 3255 3257 3260 3263 3265 3267 3269 3271 3272 3274 3276 3278 3278 3278 3279 3278 3277 3277 3274 3273 3272 3270 3267 3264 3262 3259 3256 3252 3248 3244 3240 3235 3231 3228 3224 3219 3216 3213
3246 3248 3249 3251 3253 3254 3256 3258 3261 3264 3266 3269 3270 3272 3274 3275 3277 3278 3279 3279 3278 3277 3276 3274 3273 3272 3270 3268 3265 3263 3260 3257 3254 3250 3246 3242 3238 3234 3231 3228 3223 3220 3218
3245 3247 3249 3251 3252 3254 3255 3256 3259 3262 3265 3267 3269 3270 3272 3274 3275 3276 3277 3277 3277 3276 3274 3273 3272 3271 3270 3268 3266 3263 3260 3258 3255 3251 3247 3244 3240 3237 3233 3232 3228 3224 3221
3245 3247 3248 3250 3251 3253 3255 3256 3258 3259 3262 3265 3266 3268 3270 3272 3273 3274 3274 3275 3275 3274 3274 3273 3272 3270 3269 3267 3265 3263 3260 3257 3255 3253 3249 3245 3242 3238 3235 3233 3231 3227 3224
3245 3246 3247 3249 3250 3251 3253 3255 3256 3257 3259 3261 3263 3266 3268 3269 3270 3270 3271 3271 3272 3272 3271 3271 3270 3268 3267 3265 3263 3262 3259 3257 3255 3252 3250 3246 3243 3239 3236 3233 3232 3230 3227
3243 3245 3246 3248 3249 3250 3251 3253 3254 3255 3257 3258 3260 3262 3264 3266 3267 3267 3268 3268 3268 3268 3268 3267 3266 3265 3264 3263 3261 3260 3258 3256 3254 3251 3248 3246 3243 3240 3237 3234 3232 3230 3228
3242 3243 3244 3246 3247 3248 3249 3250 3252 3253 3254 3256 3257 3259 3261 3262 3263 3264 3264 3264 3264 3264 3264 3263 3262 3261 3260 3259 3258 3257 3256 3254 3252 3250 3247 3245 3242 3240 3237 3234 3232 3230 3229
3238 3240 3242 3244 3245 3246 3247 3248 3249 3251 3252 3253 3254 3256 3257 3259 3260 3260 3260 3260 3260 3259 3259 3259 3258 3258 3256 3255 3254 3253 3252 3250 3250 3248 3245 3243 3241 3239 3236 3234 3232 3230 3229
3236 3238 3240 3240 3242 3243 3244 3246 3247 3248 3250 3251 3252 3253 3254 3255 3256 3256 3256 3256 3256 3256 3255 3255 3255 3255 3253 3251 3250 3250 3249 3247 3246 3245 3244 3241 3239 3237 3235 3233 3231 3229 3228
3233 3235 3237 3239 3240 3240 3241 3242 3244 3245 3247 3248 3249 3250 3251 3251 3252 3252 3252 3252 3252 3252 3251 3251 3251 3250 3249 3248 3247 3246 3245 3245 3244 3243 3241 3239 3237 3235 3233 3232 3230 3228 3226
3228 3231 3233 3234 3235 3236 3238 3240 3241 3242 3244 3245 3245 3246 3247 3248 3248 3248 3248 3248 3248 3248 3247 3247 3247 3246 3245 3244 3243 3242 3241 3240 3240 3238 3239 3237 3234 3232 3231 3230 3228 3226 3225
3224 3227 3229 3230 3231 3232 3234 3235 3236 3237 3239 3241 3242 3242 3244 3244 3244 3244 3244 3244 3245 3245 3244 3244 3244 3243 3242 3241 3240 3239 3238 3237 3236 3235 3233 3234 3231 3229 3227 3226 3225 3224 3222
3220 3221 3223 3226 3227 3227 3228 3230 3231 3233 3234 3235 3236 3237 3238 3239 3239 3240 3240 3240 3240 3240 3239 3238 3238 3238 3237 3236 3235 3234 3234 3232 3232 3231 3227 3226 3227 3225 3223 3222 3221 3220 3218
3215 3214 3217 3218 3219 3221 3223 3224 3226 3227 3228 3229 3230 3231 3232 3233 3233 3233 3233 3234 3234 3235 3233 3233 3233 3232 3232 3232 3229 3229 3228 3225 3225 3226 3224 3219 3221 3219 3219 3219 3216 3214 3213
3210 3210 3210 3211 3212 3214 3215 3218 3219 3220 3221 3222 3224 3224 3225 3227 3227 3227 3227 3227 3228 3229 3228 3227 3227 3227 3226 3225 3224 3222 3221 3219 3218 3217 3221 3216 3214 3213 3211 3214 3213 3210 3208